Regional Weather Roundup
Issued by NWS Midland/Odessa, TX

Home | Current Version | Previous Version | Text Only | Print | Product List | Glossary On
Versions: 1 2 3 4 5 6 7 8 9 10 11 12 13 14 15 16 17 18 19 20 21 22 23 24 25 26 27 28 29 30 31 32 33 34 35 36 37 38 39 40 41 42 43 44 45 46 47 48 49 50
000
ASUS44 KMAF 272310
RWRMAF
MIDLAND AREA WEATHER ROUNDUP
NATIONAL WEATHER SERVICE MIDLAND TX
600 PM CDT THU JUL 27 2017

...IN SOUTHWEST TEXAS AND SOUTHEAST NEW MEXICO...

CITY           SKY/WX    TMP DP  RH WIND       PRES   REMARKS
ALPINE         MOSUNNY   88  56  33 E15       30.13F
ANDREWS        FAIR      96  50  20 S8        29.99F
ARTESIA        SUNNY     97  55  24 S6G20     29.97F
BIG SPRING     MOSUNNY   98  54  22 E15G21    29.98F
CARLSBAD       MOSUNNY   96  51  21 SE9       29.94F
DRYDEN           N/A     95  59  30 SE15G28   29.93F
FORT STOCKTON  SUNNY     95  55  26 SE18G24   29.97F
GUAD PASS      SUNNY     86  54  33 E21G29    30.13F
HOBBS          MOSUNNY   95  45  17 E14G22    30.01F
MARFA          SUNNY     88  53  30 E6        30.10F
MIDLAND AIRPK  SUNNY     98  52  21 S12G20    29.98F
MIDLAND INTL   SUNNY     97  54  23 SE17      29.97F
ODESSA         SUNNY     97  51  21 S13       29.99F
PECOS          SUNNY    101  55  21 E18G24    29.91F
PRESIDIO       FAIR      99  53  21 SE3       29.93F
SEMINOLE       SUNNY     96  49  19 S13       30.00F
SNYDER         SUNNY     97  56  26 SE9G17    29.97F
WINK           MOSUNNY   98  52  21 E15G23    29.93F
$$
...OTHER STATIONS IN TEXAS...

CITY           SKY/WX    TMP DP  RH WIND       PRES   REMARKS
ABILENE        CLOUDY    98  58  26 SE12      29.94F
AMARILLO       PTSUNNY   92  59  33 VRB6G17   30.05F
AUSTIN         MOSUNNY   99  66  33 S12       29.92F HX 103
BROWNSVILLE    SUNNY     89  74  60 SE16      29.96F
CORPUS CHRISTI MOSUNNY   92  70  48 SE13G21   29.95F
DALLAS FTW     PTSUNNY   98  65  33 S10       29.89F HX 101
DEL RIO        SUNNY    100  59  25 SE14G24   29.88F HX 100
EL PASO        CLOUDY    76  62  62 E12       30.06R
HOUSTON INT    MOSUNNY   91  73  55 SE20      29.96S
LUBBOCK        PTSUNNY   95  52  23 S13       30.00F
SAN ANGELO     SUNNY     99  55  23 S10G21    29.95F
SAN ANTONIO    MOSUNNY   98  64  32 SE10G24   29.94F HX 100
WACO           SUNNY    100  64  30 SE9       29.91F HX 102
WICHITA FALLS  NOT AVBL
$$
...OTHER LOCATIONS IN NEW MEXICO...

CITY           SKY/WX    TMP DP  RH WIND       PRES   REMARKS
ALAMOGORDO     MOSUNNY   90  57  33 S17       30.05R
ALBUQUERQUE    MOSUNNY   88  53  30 SW9       30.11F
CANNON AFB     MOSUNNY   92  52  25 SE13      30.08F
CLOVIS         MOSUNNY   91  55  29 SE8       30.07F
HOLLOMAN AFB   NOT AVBL
ROSWELL        PTSUNNY   96  51  21 VRB7      29.98F
RUIDOSO        CLOUDY    81  54  39 SE13G18   30.27F
SANTA FE       TSTM      66  64  93 SE20      30.25R
TRUTH OR CONSE CLOUDY    85  61  44 S10       30.09F
TUCUMCARI      CLOUDY    92  58  31 SE6       30.04F
$$



USA.gov is the U.S. government's official web portal to all federal, state and local government web resources and services.